Terminal Aerodrome Forecast
Issued by NWS

Home | Current Version | Previous Version | Text Only | Print | Product List | Glossary On
Versions: 1 2 3 4 5 6 7 8 9 10 11 12 13 14 15 16 17 18 19 20 21 22 23 24 25 26 27 28 29 30 31 32 33 34 35 36 37 38 39 40 41 42 43 44 45 46 47 48 49 50
000
FTUS44 KBMX 282339
TAFASN
TAF
KASN 282339Z 2900/2924 07003KT P6SM SCT250
     FM290800 07005KT 6SM BR OVC050
      TEMPO 2910/2912 4SM BR
     FM291200 08005KT 4SM BR OVC015
     FM291700 11006KT P6SM VCTS BKN050CB=

USA.gov is the U.S. government's official web portal to all federal, state and local government web resources and services.